Vertical_Velocity
-3 -4 -4 -5 -4 -1 1 5 14 22 21 10 4 2 2 4 6 8 8 6 4 3 2 1 1 1 1 1 1 1 -0 -0 -1 -1 -0 -0 -0 -0 -1 -3 -3 -2 1 3 4 3 2 1 1 1 1 2 2 2 2 1 -0 -1 -2 -2 -2 -1 -0 -0 -1 -1 -1 -0 0 0 0 0 0 0 0 -0 -0 -1 -2 -3 -3 -3 -2 -2 -2 -2
-3 -4 -4 -5 -4 -0 5 9 16 22 20 8 1 -1 -0 0 1 3 4 4 4 3 2 2 1 1 1 1 1 0 -0 -0 -0 -0 -0 -0 -0 -1 -2 -3 -2 -1 1 3 3 2 1 1 -0 -0 0 1 2 3 2 1 -0 -1 -2 -2 -1 -0 -0 -1 -1 -1 -0 1 1 0 0 -0 -0 0 0 -0 -1 -2 -3 -3 -3 -2 -2 -2 -2 -2
-3 -4 -4 -5 -5 -4 -1 1 4 6 6 1 -2 -3 -2 -2 -2 -0 1 2 2 2 2 2 2 2 2 1 0 -0 -0 -0 0 0 -0 -1 -1 -2 -3 -3 -2 -0 2 2 1 1 -0 -1 -1 -1 -1 1 2 2 2 1 0 -1 -1 -1 -0 -0 -1 -1 -1 -0 1 1 1 0 -0 -0 -0 -0 -0 -1 -2 -3 -4 -3 -2 -2 -2 -2 -2 -2
-2 -3 -4 -4 -4 -5 -5 -5 -4 -4 -4 -4 -4 -4 -4 -4 -3 -2 -1 -0 -0 -0 -0 0 1 1 1 1 0 -1 -1 -0 0 -0 -0 -1 -2 -2 -3 -2 -1 0 1 1 0 -0 -1 -1 -2 -2 -1 0 1 2 2 1 1 0 0 0 0 -0 -1 -1 -0 1 1 1 0 -0 -0 -0 0 -0 -1 -2 -3 -4 -4 -2 -2 -2 -2 -2 -2 -2
-1 -2 -3 -3 -4 -4 -4 -4 -4 -4 -4 -4 -4 -5 -5 -5 -4 -3 -2 -2 -2 -2 -1 -1 -1 -0 -0 0 -0 -1 -1 -0 -0 -0 -0 -1 -2 -2 -2 -2 -0 0 1 -0 -1 -1 -1 -1 -2 -1 -1 -0 1 1 2 2 2 1 1 1 0 -0 -0 0 1 1 1 1 0 -0 0 0 -0 -1 -2 -3 -4 -4 -3 -2 -2 -2 -2 -2 -2 -2
-0 -1 -2 -2 -2 -3 -3 -2 -2 -2 -2 -4 -4 -5 -5 -5 -4 -4 -4 -3 -2 -2 -2 -1 -2 -2 -2 -1 -1 -1 -1 -0 -0 -0 -0 -1 -1 -2 -2 -1 0 0 -0 -1 -0 -0 -1 -1 -1 -1 -1 0 1 1 2 2 2 2 2 1 0 0 0 1 1 1 0 -0 -0 0 0 -0 -1 -2 -3 -3 -3 -3 -2 -2 -2 -2 -2 -2 -2 -2
1 1 -0 -0 -1 -2 -1 -0 0 0 -0 -2 -3 -4 -5 -4 -4 -4 -4 -4 -4 -3 -2 -2 -2 -2 -2 -2 -1 -1 -0 -0 -0 -0 -0 -0 -1 -1 -0 1 1 1 -0 -0 -0 -0 -1 -1 -1 -0 0 0 1 1 2 3 4 3 2 1 1 0 0 1 1 0 -0 -0 -0 -0 -0 -1 -2 -2 -3 -3 -3 -2 -1 -2 -2 -2 -2 -2 -2 -2
4 3 3 2 1 0 0 1 1 1 1 0 -1 -2 -4 -3 -3 -2 -3 -3 -4 -4 -3 -2 -2 -2 -2 -1 -1 0 0 0 0 0 -0 -0 -0 0 1 3 4 3 1 1 1 0 -0 -0 -0 0 1 0 0 1 4 6 6 5 3 1 1 0 0 0 0 0 -0 -0 -0 -1 -2 -2 -2 -2 -3 -3 -3 -2 -1 -2 -2 -2 -2 -2 -2 -3
5 5 5 4 3 3 2 1 1 2 2 1 1 -0 -2 -2 -2 -2 -3 -3 -4 -4 -3 -2 -2 -1 -1 -1 -0 0 0 0 0 0 0 0 0 1 3 5 5 4 3 3 2 1 0 0 1 1 0 -1 0 3 7 8 6 4 1 1 0 -0 -0 -0 -0 0 -0 -0 -1 -2 -3 -2 -2 -2 -3 -3 -2 -1 -1 -2 -3 -3 -2 -2 -2 -3
5 5 6 5 5 5 4 3 2 2 3 2 2 1 0 -0 0 2 3 -0 -2 -4 -3 -2 -1 -1 -0 -0 0 0 0 0 0 0 0 0 1 2 4 5 5 4 4 4 3 2 1 1 1 1 -0 -0 2 6 8 6 3 1 -0 -0 -0 -0 -0 0 0 0 0 -1 -2 -2 -3 -2 -2 -2 -2 -2 -1 -1 -2 -2 -3 -2 -2 -2 -2 -3
3 3 4 4 4 4 4 3 3 3 3 3 2 1 1 0 2 6 10 5 0 -3 -4 -3 -2 -0 -0 -0 -0 0 1 1 0 0 1 1 3 4 5 5 5 4 4 4 3 2 1 1 1 0 -0 2 5 8 7 3 0 -1 -2 -1 -1 -0 0 1 1 0 -1 -2 -2 -3 -2 -2 -2 -2 -2 -1 -1 -1 -2 -3 -3 -2 -2 -2 -2 -2
2 2 2 2 2 3 3 2 2 3 3 3 2 1 0 0 1 3 5 3 -0 -2 -3 -3 -2 -2 -0 -0 -0 0 1 1 1 1 3 4 6 7 6 5 5 5 4 3 3 2 1 1 1 1 2 5 8 8 5 1 -1 -2 -1 -1 -0 0 1 1 0 -1 -2 -2 -3 -2 -2 -2 -2 -2 -1 -1 -1 -2 -3 -3 -2 -2 -2 -2 -2 -2
2 3 2 2 1 1 2 2 2 2 2 1 1 -0 -0 0 1 1 0 -1 -2 -2 -2 -4 -5 -4 -2 -0 0 1 2 4 5 6 8 8 8 7 6 5 5 4 4 3 2 2 2 1 1 1 4 7 8 7 3 -0 -1 -1 -1 -0 0 1 1 1 -1 -2 -2 -2 -2 -2 -1 -2 -2 -1 -0 -1 -1 -2 -3 -2 -2 -2 -2 -2 -2 -2
2 3 3 2 1 1 1 1 1 1 1 0 -0 -1 -2 -1 -0 0 -1 -2 -3 -3 -2 -4 -6 -7 -4 -1 2 6 10 11 11 11 11 9 6 5 4 4 3 2 3 2 2 1 1 1 1 1 5 9 9 6 1 -0 -1 -1 -1 -0 0 0 0 -1 -2 -2 -2 -2 -2 -1 -1 -1 -1 -0 -0 -1 -2 -2 -2 -2 -2 -2 -2 -2 -3 -3
1 2 1 -0 -1 -0 0 1 1 1 -0 -0 -1 -1 -2 -2 -2 -2 -4 -2 0 2 3 1 -2 -3 -0 5 10 14 16 15 14 11 9 6 3 2 3 2 1 1 2 2 1 0 -0 -1 -1 -0 4 9 9 6 1 -0 -1 -1 -1 -0 -0 -0 -1 -2 -2 -2 -2 -1 -1 -1 -1 -0 -0 0 -0 -2 -2 -3 -2 -2 -2 -2 -2 -3 -3 -3
-1 0 1 2 2 1 0 1 1 -0 -1 -0 0 0 -0 -2 -3 -2 2 10 13 14 12 10 8 7 8 11 14 15 15 12 9 7 6 3 0 -0 3 2 1 1 2 1 1 -0 -1 -2 -2 -1 3 7 6 4 1 0 -0 -0 -0 -0 -0 -1 -2 -2 -2 -2 -1 -1 -0 -0 -0 0 0 -0 -1 -2 -3 -2 -2 -2 -2 -3 -3 -3 -3 -3
-1 -1 -0 7 9 7 3 2 1 -0 -0 1 1 1 0 -2 -1 4 14 20 20 18 15 14 14 14 12 9 8 8 9 7 4 2 3 1 -0 -0 2 2 1 1 1 1 0 -0 -1 -2 -2 -1 3 4 4 2 1 0 0 -0 -0 -0 -1 -1 -2 -2 -1 -1 -0 -0 0 1 1 1 0 -1 -2 -2 -2 -2 -2 -2 -3 -3 -3 -3 -3 -2
-0 -2 -3 6 12 13 6 3 1 -0 0 2 2 2 1 -0 2 8 19 20 18 16 14 15 15 14 12 8 4 2 5 5 3 1 1 1 0 0 2 3 2 2 2 1 0 -0 -1 -1 -1 0 2 3 2 1 0 0 -0 -0 -0 -1 -1 -2 -2 -1 -0 0 0 0 1 1 1 0 -1 -2 -3 -2 -2 -2 -2 -2 -3 -3 -3 -3 -2 -2
-1 -2 -2 3 10 14 10 4 1 -0 0 1 1 2 2 0 2 8 16 16 15 13 12 12 11 11 11 8 5 3 4 5 4 2 1 1 1 2 3 4 3 2 2 1 -0 -1 -1 -0 0 1 2 1 1 -0 -0 -0 -0 -0 -1 -1 -1 -1 -1 -0 0 1 1 1 1 1 1 -0 -1 -2 -2 -2 -2 -2 -2 -2 -3 -3 -3 -2 -2 -1
-1 -1 -1 -1 4 11 18 13 6 1 -1 -1 -1 -0 0 -0 1 5 10 10 9 7 4 3 3 4 7 8 6 4 3 4 4 2 1 2 2 2 3 4 3 2 1 0 -0 -1 -1 -0 1 1 1 1 -0 -0 -0 -0 -0 -1 -1 -1 -1 -0 0 1 1 1 1 1 1 1 0 -1 -2 -2 -2 -2 -2 -2 -2 -2 -3 -2 -2 -2 -1 -1
-1 -1 -2 -2 -0 5 15 21 19 12 5 1 -0 -1 -1 -0 -0 1 1 2 1 -1 -3 -3 -2 -0 3 6 5 2 1 3 3 2 1 1 1 1 2 3 3 2 1 0 -0 -0 -0 0 1 1 1 -0 -0 -0 -0 -0 -0 -1 -1 -0 -0 0 1 1 1 1 1 1 1 0 -1 -2 -2 -2 -2 -2 -2 -2 -2 -2 -2 -2 -2 -1 -1 -0
-1 -2 -3 -1 -0 1 5 18 26 29 22 14 7 2 -1 -1 -2 -3 -3 -3 -4 -4 -4 -4 -4 -2 1 3 2 -0 -0 2 2 2 1 1 1 0 1 3 3 3 1 1 0 -0 0 1 1 0 -0 -0 -0 -0 -0 -0 -1 -1 -0 0 1 1 1 1 1 1 1 1 1 -0 -1 -2 -2 -2 -2 -2 -2 -2 -2 -2 -2 -2 -1 -1 -1 -0
-1 -2 -2 -1 -0 -0 1 10 21 30 31 25 17 10 5 3 1 -0 -2 -2 -3 -4 -4 -4 -4 -2 0 2 1 -0 0 2 2 2 2 2 1 1 2 4 4 4 3 2 2 1 1 1 0 -0 -0 -0 -0 -0 -0 -0 -0 -0 1 1 1 1 2 2 2 1 1 1 -0 -1 -2 -2 -2 -2 -2 -3 -3 -2 -2 -2 -2 -1 -1 -0 -0 -0
-1 -1 -1 -1 -1 0 2 6 14 22 28 26 22 18 15 12 10 8 6 4 2 1 -0 -0 0 1 2 3 3 2 1 2 2 3 3 2 1 1 3 5 5 5 4 3 3 2 1 0 0 -0 -0 -0 -0 -0 -0 -0 0 1 1 2 2 2 2 2 1 1 1 -0 -1 -2 -2 -2 -2 -2 -3 -3 -3 -2 -2 -2 -1 -1 -0 -0 -0 -0
0 0 -1 -1 -0 1 4 4 7 12 20 22 20 15 11 9 8 7 7 6 5 5 4 4 4 4 3 4 4 3 1 1 2 3 3 1 1 1 3 4 5 5 3 2 2 1 1 1 0 0 0 0 -0 -0 -0 0 1 1 2 2 2 2 2 1 1 1 -0 -1 -2 -2 -2 -2 -2 -2 -3 -3 -2 -2 -1 -1 -1 -0 -0 -0 -0 -0
4 5 3 1 -0 1 3 4 3 4 8 13 12 9 3 1 1 1 0 1 2 3 3 2 2 2 2 4 4 4 1 1 1 2 2 1 1 1 2 3 4 4 3 2 1 1 1 1 1 1 0 0 -0 -0 0 1 2 2 3 3 2 1 1 1 0 -0 -1 -2 -2 -2 -2 -2 -2 -3 -3 -2 -2 -1 -1 -1 -0 -0 0 0 -0 -1
5 8 10 6 2 0 0 1 1 1 1 3 3 2 -0 -1 -2 -2 -3 -2 -1 1 1 1 1 1 1 4 4 4 1 1 0 1 1 2 1 1 1 1 2 3 3 2 1 1 2 1 1 1 0 -0 -0 0 1 2 3 3 3 2 1 1 1 0 -0 -1 -2 -2 -2 -2 -2 -2 -3 -3 -2 -2 -1 -1 -1 -0 -0 -0 0 -0 -0 -1
4 7 11 10 8 4 1 1 1 2 2 1 -0 -2 -3 -2 -2 -2 -4 -4 -1 0 0 1 1 2 2 3 3 1 -0 -0 -0 -0 1 2 3 2 1 1 2 3 3 2 1 1 1 2 1 1 0 -0 -0 1 2 3 3 3 2 1 1 1 -0 -1 -1 -2 -2 -2 -2 -2 -2 -2 -2 -2 -2 -1 -1 -0 -0 -0 -0 -0 -0 -0 -0 -1
2 5 8 10 10 9 8 8 8 9 9 6 2 -1 -2 -1 -1 -2 -5 -4 -2 0 0 1 2 3 3 2 1 -1 -2 -1 -0 0 2 3 3 2 1 1 2 3 3 2 1 1 1 1 1 0 -0 -0 1 1 2 3 2 2 1 1 1 0 -1 -1 -2 -2 -2 -2 -2 -2 -2 -2 -2 -2 -1 -1 -0 -0 -0 -0 -0 -0 -0 -0 -0 -1
1 4 6 7 9 10 11 12 14 15 15 12 7 2 -0 -0 -0 -1 -4 -3 -1 1 1 3 3 4 3 1 -0 -1 -1 -1 -0 1 2 4 3 2 0 1 2 2 2 2 1 0 -0 0 0 0 0 1 1 2 2 2 2 1 1 1 -0 -1 -1 -2 -2 -1 -2 -2 -2 -2 -2 -2 -2 -1 -0 -0 -0 -0 -0 -0 -0 -0 -1 -1 -1 -1
1 3 4 5 6 7 8 11 13 15 16 14 11 7 4 3 1 0 -1 -1 1 2 4 5 5 4 3 1 1 1 1 1 0 1 2 3 2 0 -0 1 1 1 1 1 1 0 -0 0 0 1 1 1 2 2 2 1 1 1 1 0 -0 -1 -2 -1 -1 -1 -2 -2 -2 -2 -2 -2 -1 -0 -0 -0 -0 -0 -0 -0 -0 -1 -1 -1 -1 -1
-0 2 4 4 4 5 6 8 10 11 13 13 13 12 10 8 6 4 3 2 3 5 7 7 6 4 2 2 2 3 3 2 1 1 2 2 1 0 -1 0 1 1 0 1 1 1 1 1 1 1 1 2 2 2 1 1 1 1 0 -0 -1 -1 -1 -1 -1 -1 -2 -2 -2 -2 -2 -1 -0 -0 0 0 -0 -0 0 -0 -0 -1 -1 -1 -1 -2
-1 2 4 4 4 4 5 6 8 10 11 12 13 13 13 12 10 9 8 7 7 8 9 8 6 4 2 3 4 4 4 3 2 2 2 2 2 1 -0 1 1 1 2 2 2 2 2 2 2 2 2 2 2 2 1 1 1 0 -0 -1 -1 -1 -1 -1 -1 -1 -2 -2 -1 -1 -1 -0 0 0 0 -0 -0 -0 0 -0 -1 -1 -1 -1 -1 -2
-2 1 4 5 5 5 5 5 6 8 10 11 12 12 12 12 12 12 12 11 11 10 9 6 4 2 2 4 5 6 6 5 4 3 3 2 2 2 1 1 2 3 3 3 3 3 2 2 2 2 2 2 2 2 1 1 1 0 -0 -1 -1 -1 -1 -1 -1 -1 -1 -1 -1 -1 -0 -0 0 1 0 0 -0 -0 -0 -0 -1 -1 -1 -1 -1 -2
-1 -0 2 4 6 6 6 5 5 6 7 9 10 11 11 12 12 13 13 13 13 11 8 5 2 1 1 3 4 5 6 4 4 3 3 3 3 3 2 3 3 3 3 3 2 2 2 2 2 2 2 2 2 1 1 1 1 -0 -1 -1 -1 -1 -1 -1 -1 -1 -1 -1 -1 -1 -0 0 0 0 0 0 0 0 -0 -1 -1 -1 -1 -1 -1 -1
-0 -0 1 3 5 6 6 6 6 5 5 7 9 10 11 12 12 13 13 13 13 11 8 5 3 2 2 2 2 2 3 3 3 3 3 3 3 3 2 3 3 3 2 2 2 2 2 2 2 1 1 1 1 1 1 1 0 -0 -1 -1 -1 -1 -1 -1 -1 -1 -1 -1 -1 -1 -0 0 0 0 0 0 0 0 -0 -1 -1 -1 -2 -2 -2 -2
-0 -0 0 2 3 4 5 5 5 5 5 6 7 8 10 12 12 12 12 12 12 10 8 5 4 3 3 2 2 1 2 3 3 3 4 3 3 2 2 3 3 2 2 2 2 2 2 2 1 1 1 1 1 1 1 0 -0 -0 -1 -1 -1 -1 -1 -1 -1 -1 -1 -1 -1 -0 -0 0 0 0 0 0 0 0 -0 -1 -1 -1 -2 -2 -2 -2
-0 -0 -0 1 2 3 4 4 4 4 5 5 6 7 10 11 12 11 10 10 10 9 8 6 5 4 3 2 2 2 3 4 4 4 4 3 2 2 2 2 2 2 2 2 2 2 2 1 0 0 0 1 1 1 1 -0 -0 -0 -1 -1 -0 -0 -0 -1 -1 -1 -1 -1 -1 -0 -0 0 0 0 0 0 0 -0 -0 -1 -1 -2 -2 -2 -2 -2
-0 -0 0 1 1 2 3 3 3 3 4 4 5 6 8 11 11 10 9 8 7 7 8 8 7 5 2 1 1 2 3 3 3 3 2 2 1 1 1 1 1 2 2 2 2 1 1 0 -0 -0 0 0 0 0 0 -0 -0 -0 -0 -0 -0 -0 -1 -1 -1 -1 -1 -1 -0 -0 -0 -0 -0 0 1 0 0 -0 -1 -1 -1 -2 -2 -2 -2 -2
-0 -0 -0 0 0 0 0 1 1 2 3 4 4 5 7 9 11 11 10 8 8 8 9 10 9 6 3 1 1 1 2 2 2 1 0 -0 0 0 1 1 1 1 1 1 1 1 0 -0 -0 -0 -0 -0 0 0 -0 -0 -0 -0 -0 -0 -0 -1 -1 -0 -0 -0 -1 -1 -0 -0 -0 -0 -0 0 0 0 0 -0 -1 -1 -1 -2 -2 -2 -2 -2
-0 -0 0 0 -0 -0 -1 -1 -0 2 3 4 4 4 5 8 10 12 12 12 11 12 12 12 11 8 6 4 3 2 3 2 2 1 -0 -0 -0 -0 0 1 1 1 0 1 0 0 -0 -0 -0 -0 -0 -0 0 0 0 -0 -0 -0 -0 -0 -0 -1 -0 0 0 -0 -0 -0 -0 -0 -0 -0 -0 -0 0 0 -0 -0 -1 -1 -1 -1 -2 -2 -1 -1
-0 -0 -0 0 0 0 -1 -2 -0 2 3 3 3 3 4 5 8 10 11 12 13 13 13 13 12 10 8 6 4 4 3 3 2 2 1 1 1 1 1 1 0 -0 -0 -0 -0 -0 -1 -0 -0 -0 -0 0 0 1 0 -0 -0 -0 -0 -0 -0 -0 1 0 0 -0 -0 -0 -1 -1 -0 -0 -0 -0 -0 -0 -0 -0 -1 -1 -1 -1 -1 -1 -1 -1
-1 -0 -0 -0 0 -0 -1 -0 1 1 2 2 2 1 1 3 4 6 8 9 10 11 11 11 10 8 6 5 4 4 3 2 2 2 1 2 2 2 2 1 0 -1 -1 -1 -1 -1 -1 -0 -0 -0 -0 0 0 1 0 -0 -0 -0 -0 0 1 1 1 0 -0 -0 -0 -0 -1 -1 -1 -1 -0 -0 -0 -0 -1 -1 -1 -1 -1 -1 -1 -1 -1 -1
-1 -1 -1 -1 -0 0 1 2 1 1 1 1 0 -1 -1 1 3 5 6 7 7 8 8 8 7 6 5 5 4 3 2 2 1 1 1 1 2 2 2 1 -1 -2 -2 -1 -1 -1 -0 0 0 0 0 1 1 1 0 -0 -0 -0 0 1 1 1 1 0 -0 -0 -0 -1 -1 -1 -1 -1 -0 -0 -0 -1 -1 -1 -1 -1 -1 -1 -1 -0 -0 -0
-1 -2 -2 -1 -0 1 2 2 2 1 1 1 -0 -1 -2 -0 1 3 4 4 4 5 5 6 6 6 6 5 5 4 5 5 4 4 2 2 1 1 0 -0 -1 -2 -2 -1 -1 -1 -0 0 1 1 1 1 1 1 0 -0 0 0 1 1 1 1 1 0 -0 -1 -1 -1 -1 -1 -1 -1 -0 -0 -0 -1 -1 -1 -1 -0 -0 -0 -1 -1 -1 -1
-1 -2 -2 -2 -1 -0 1 1 1 2 2 2 1 0 -1 -0 1 1 1 1 2 2 3 3 4 4 4 4 5 5 7 9 10 10 8 5 3 1 -1 -2 -2 -2 -1 -0 -0 -0 0 0 1 1 1 2 1 1 0 0 0 1 1 1 2 2 1 0 -0 -1 -1 -1 -1 -1 -1 -1 -0 -0 -1 -1 -1 -1 -0 -0 0 -0 -0 -1 -1 -1
-1 -1 -2 -2 -1 -1 -0 1 1 2 3 3 3 2 1 1 1 1 0 0 0 1 1 2 2 3 3 2 3 4 6 9 11 12 12 10 7 4 0 -1 -2 -1 -1 -0 1 1 1 1 1 1 1 2 1 1 -0 0 1 1 2 2 2 2 1 -0 -1 -1 -1 -1 -1 -1 -1 -1 -0 -1 -1 -1 -1 -1 -0 -0 -0 -0 -0 -0 -1 -1
-1 -1 -1 -1 -1 -1 -0 1 1 2 3 3 3 3 2 2 2 1 1 -0 0 0 1 1 1 2 2 1 1 1 2 5 7 9 11 12 11 8 4 1 -0 -1 -0 0 1 1 2 2 2 2 2 2 2 1 0 0 1 1 2 2 2 1 1 -0 -1 -1 -1 -1 -1 -1 -1 -1 -1 -1 -1 -1 -1 -0 -0 -0 -0 -0 -0 -0 -1 -1
-1 -0 -0 -1 -1 -0 -0 1 1 2 3 3 3 3 2 2 2 2 1 1 0 0 0 1 1 1 1 0 -0 -1 -1 1 3 6 8 11 12 11 9 5 2 0 0 1 2 2 2 2 3 3 3 3 2 1 1 1 1 2 2 2 2 1 0 -0 -1 -1 -1 -1 -2 -2 -1 -1 -1 -0 -0 -0 -0 -0 -0 -0 -0 -0 -0 -0 -0 -1
-1 -0 0 -0 -0 -0 0 1 1 2 1 1 2 2 2 3 3 2 2 1 1 1 1 1 1 0 0 -0 -1 -2 -2 -2 -1 2 5 8 10 10 8 5 2 1 1 2 3 3 3 3 4 4 4 3 3 2 1 1 1 2 2 2 1 1 0 -0 -1 -1 -1 -2 -2 -2 -1 -1 -0 0 0 0 -0 -0 -1 -1 -0 -0 -0 -0 -1 -1
-1 -0 0 0 0 0 1 1 1 1 1 0 0 1 2 2 2 2 2 1 1 1 1 0 0 0 0 -0 -1 -2 -3 -4 -4 -2 1 4 6 6 4 1 -0 -0 1 3 3 3 3 4 4 4 4 2 2 2 2 1 1 2 2 2 1 1 0 -0 -1 -1 -2 -2 -2 -2 -1 -0 0 0 1 1 0 -0 -1 -1 -1 -0 0 0 -1 -1
Height
5647 5649 5650 5651 5653 5655 5657 5658 5659 5661 5661 5662 5663 5665 5666 5668 5670 5671 5673 5675 5676 5677 5679 5680 5682 5683 5684 5685 5686 5687 5688 5690 5691 5692 5694 5695 5696 5697 5698 5699 5699 5700 5701 5701 5701 5701 5701 5701 5701 5701 5701 5701 5702 5702 5702 5703 5703 5703 5703 5703 5703 5703 5703 5703 5703 5703 5704 5704 5704 5703 5703 5702 5701 5700 5699 5699 5698 5698 5697 5696 5695 5694 5692 5691 5690 5688
5646 5648 5650 5651 5652 5654 5656 5657 5657 5658 5659 5660 5660 5662 5664 5666 5668 5670 5672 5674 5675 5676 5677 5679 5680 5681 5682 5683 5684 5685 5686 5687 5689 5690 5692 5693 5694 5695 5696 5696 5697 5698 5698 5698 5699 5699 5699 5699 5699 5699 5699 5699 5699 5700 5701 5701 5701 5701 5701 5701 5701 5701 5701 5701 5701 5701 5702 5702 5701 5701 5700 5699 5698 5698 5697 5696 5696 5696 5695 5694 5693 5691 5690 5689 5687 5686
5645 5647 5648 5650 5651 5652 5653 5654 5655 5656 5657 5657 5658 5660 5662 5664 5666 5668 5670 5671 5673 5674 5675 5676 5678 5679 5680 5681 5682 5683 5684 5685 5687 5688 5689 5691 5691 5693 5693 5694 5695 5696 5696 5696 5696 5696 5696 5696 5696 5696 5697 5697 5697 5698 5698 5699 5699 5699 5699 5699 5699 5699 5698 5699 5699 5700 5700 5700 5699 5698 5698 5697 5696 5695 5695 5694 5694 5694 5693 5692 5691 5689 5688 5686 5685 5683
5643 5645 5646 5648 5650 5651 5651 5652 5653 5655 5655 5656 5658 5659 5661 5662 5664 5666 5667 5669 5671 5672 5673 5675 5676 5677 5678 5680 5681 5681 5682 5683 5684 5686 5687 5688 5689 5690 5691 5692 5692 5693 5693 5694 5694 5694 5694 5694 5694 5694 5695 5695 5695 5696 5696 5696 5696 5696 5696 5696 5696 5696 5696 5696 5697 5697 5697 5697 5696 5696 5695 5694 5694 5693 5693 5692 5692 5691 5691 5690 5688 5687 5686 5684 5682 5681
5641 5642 5644 5646 5648 5650 5651 5651 5652 5653 5655 5656 5657 5658 5659 5660 5661 5663 5665 5667 5668 5670 5671 5672 5673 5675 5676 5678 5679 5679 5680 5681 5682 5683 5684 5686 5687 5688 5689 5689 5690 5690 5691 5691 5691 5691 5691 5692 5692 5692 5692 5693 5693 5693 5694 5694 5694 5694 5694 5694 5694 5694 5694 5695 5695 5695 5695 5695 5694 5694 5693 5692 5691 5691 5691 5690 5690 5689 5688 5687 5686 5685 5683 5682 5680 5679
5640 5641 5642 5644 5645 5647 5649 5651 5651 5652 5653 5654 5655 5656 5657 5658 5660 5661 5663 5664 5666 5667 5668 5670 5671 5672 5674 5675 5676 5677 5678 5679 5680 5681 5682 5683 5684 5686 5686 5687 5687 5687 5688 5688 5689 5689 5689 5690 5690 5690 5690 5691 5691 5691 5691 5692 5692 5692 5692 5692 5692 5692 5692 5692 5693 5693 5692 5692 5692 5691 5691 5690 5689 5689 5688 5688 5688 5687 5686 5685 5684 5682 5681 5680 5678 5677
5639 5640 5641 5642 5643 5645 5646 5648 5650 5651 5652 5652 5653 5654 5656 5656 5658 5659 5660 5662 5663 5664 5666 5667 5669 5670 5671 5672 5673 5675 5676 5677 5678 5679 5680 5681 5682 5683 5684 5684 5684 5685 5686 5686 5687 5687 5687 5687 5688 5688 5688 5688 5689 5689 5689 5690 5690 5690 5690 5690 5689 5690 5690 5690 5690 5690 5690 5690 5690 5689 5688 5687 5687 5686 5686 5686 5686 5685 5684 5683 5681 5680 5679 5677 5676 5675
5638 5639 5640 5641 5642 5643 5644 5646 5647 5648 5649 5651 5651 5652 5654 5655 5656 5657 5658 5660 5661 5662 5663 5665 5666 5667 5668 5670 5671 5672 5673 5675 5676 5677 5678 5679 5680 5681 5681 5681 5682 5683 5683 5684 5685 5685 5685 5685 5686 5686 5686 5686 5686 5687 5687 5687 5688 5687 5687 5687 5687 5687 5687 5688 5688 5688 5688 5687 5687 5686 5685 5685 5685 5685 5684 5684 5683 5682 5681 5680 5679 5678 5676 5675 5674 5672
5637 5638 5639 5640 5641 5641 5642 5644 5645 5646 5647 5648 5650 5650 5651 5652 5654 5655 5657 5658 5660 5660 5661 5662 5663 5665 5666 5667 5668 5670 5671 5672 5673 5674 5675 5676 5677 5678 5678 5679 5680 5681 5681 5682 5682 5683 5683 5683 5683 5683 5684 5684 5684 5685 5685 5685 5685 5685 5684 5684 5684 5685 5685 5685 5685 5685 5685 5685 5684 5683 5682 5682 5683 5682 5682 5682 5681 5680 5679 5678 5677 5676 5674 5673 5672 5671
5636 5637 5638 5639 5641 5641 5642 5643 5644 5645 5645 5646 5648 5649 5649 5650 5652 5654 5656 5658 5658 5658 5659 5659 5661 5662 5663 5665 5666 5667 5668 5670 5671 5672 5673 5673 5674 5675 5676 5676 5677 5678 5679 5680 5680 5680 5681 5681 5681 5681 5681 5681 5682 5682 5683 5683 5683 5682 5682 5681 5682 5682 5682 5683 5683 5683 5682 5682 5681 5680 5681 5681 5681 5681 5680 5679 5679 5678 5677 5676 5675 5673 5672 5671 5670 5668
5634 5635 5636 5637 5639 5640 5641 5642 5643 5643 5644 5645 5646 5647 5648 5649 5651 5653 5656 5656 5656 5656 5657 5657 5658 5660 5661 5662 5664 5665 5666 5667 5668 5670 5671 5671 5672 5672 5673 5674 5675 5676 5677 5677 5678 5678 5678 5678 5678 5678 5679 5679 5680 5680 5681 5680 5680 5680 5679 5679 5680 5680 5680 5680 5680 5680 5680 5679 5678 5678 5679 5679 5679 5678 5678 5677 5676 5676 5675 5673 5672 5671 5670 5669 5667 5666
5631 5633 5634 5635 5636 5638 5639 5640 5641 5642 5643 5643 5644 5645 5646 5647 5649 5651 5652 5653 5653 5654 5655 5656 5656 5658 5659 5660 5661 5662 5664 5665 5666 5667 5668 5669 5669 5670 5671 5672 5673 5674 5675 5675 5675 5675 5675 5675 5676 5676 5676 5676 5677 5678 5678 5678 5677 5677 5677 5677 5677 5678 5678 5678 5678 5677 5676 5676 5676 5676 5677 5677 5676 5676 5676 5675 5674 5673 5672 5671 5670 5669 5668 5667 5666 5665
5629 5630 5631 5633 5634 5635 5636 5637 5639 5640 5641 5641 5642 5642 5644 5645 5647 5649 5650 5651 5651 5652 5653 5654 5655 5656 5657 5658 5659 5660 5661 5663 5664 5665 5666 5666 5667 5668 5669 5670 5671 5671 5672 5672 5672 5672 5673 5672 5673 5673 5673 5674 5675 5676 5676 5675 5675 5675 5675 5675 5675 5675 5675 5675 5675 5674 5674 5674 5674 5675 5675 5675 5674 5674 5673 5673 5672 5671 5670 5669 5668 5667 5666 5665 5664 5663
5627 5628 5629 5630 5631 5632 5633 5635 5636 5637 5638 5639 5640 5641 5642 5644 5645 5647 5648 5649 5651 5651 5653 5654 5654 5653 5654 5656 5657 5658 5659 5661 5661 5662 5663 5663 5664 5665 5666 5667 5668 5669 5669 5670 5670 5670 5670 5670 5670 5670 5671 5671 5672 5673 5673 5673 5673 5673 5673 5673 5673 5673 5673 5672 5672 5671 5672 5672 5673 5673 5673 5672 5672 5671 5671 5670 5669 5668 5668 5667 5666 5665 5664 5663 5662 5661
5624 5626 5627 5628 5629 5630 5631 5632 5633 5634 5635 5636 5638 5639 5641 5642 5644 5645 5646 5647 5649 5651 5653 5654 5653 5652 5652 5653 5655 5656 5657 5658 5659 5660 5660 5661 5661 5662 5663 5664 5665 5666 5666 5667 5667 5667 5667 5667 5667 5667 5668 5669 5670 5670 5670 5670 5670 5671 5671 5671 5671 5670 5670 5669 5669 5670 5670 5670 5671 5671 5671 5670 5670 5669 5669 5668 5667 5666 5666 5665 5664 5663 5662 5661 5661 5660
5622 5623 5625 5627 5628 5629 5630 5630 5631 5632 5633 5634 5636 5637 5639 5640 5642 5644 5646 5648 5649 5650 5651 5651 5651 5650 5650 5651 5652 5653 5654 5655 5656 5656 5657 5658 5658 5659 5661 5661 5662 5663 5664 5664 5664 5665 5665 5665 5665 5666 5666 5667 5667 5667 5668 5668 5668 5668 5668 5668 5668 5667 5667 5667 5667 5668 5668 5668 5668 5668 5668 5668 5667 5667 5666 5666 5665 5664 5664 5663 5662 5661 5661 5660 5659 5658
5620 5621 5622 5625 5627 5628 5628 5628 5629 5629 5631 5632 5633 5635 5636 5638 5641 5643 5646 5646 5647 5647 5647 5647 5647 5647 5648 5648 5649 5651 5651 5652 5652 5653 5654 5655 5655 5656 5658 5659 5660 5660 5661 5661 5662 5662 5663 5663 5663 5664 5664 5665 5665 5665 5665 5665 5666 5666 5666 5665 5665 5665 5665 5665 5666 5666 5666 5666 5666 5666 5666 5666 5665 5665 5664 5663 5663 5662 5661 5661 5660 5660 5659 5658 5657 5656
5618 5619 5621 5623 5624 5625 5626 5626 5627 5627 5629 5630 5631 5633 5635 5637 5639 5641 5642 5642 5643 5643 5643 5644 5644 5644 5645 5646 5646 5647 5649 5650 5650 5650 5651 5652 5653 5654 5655 5656 5657 5658 5659 5659 5660 5660 5660 5661 5661 5662 5662 5662 5662 5663 5663 5663 5663 5663 5663 5662 5662 5662 5663 5663 5664 5664 5664 5664 5664 5664 5664 5663 5663 5662 5662 5661 5661 5660 5660 5659 5658 5658 5657 5656 5656 5655
5616 5617 5618 5620 5621 5623 5624 5624 5624 5625 5626 5627 5628 5630 5632 5634 5636 5638 5638 5638 5639 5640 5640 5641 5641 5642 5643 5643 5644 5645 5646 5647 5648 5648 5649 5650 5651 5651 5653 5654 5655 5656 5656 5657 5657 5657 5658 5658 5659 5660 5660 5660 5660 5660 5660 5661 5661 5660 5660 5660 5660 5660 5661 5661 5661 5662 5662 5662 5662 5662 5661 5661 5661 5660 5660 5659 5659 5658 5658 5657 5657 5656 5656 5655 5654 5654
5613 5615 5616 5617 5618 5620 5623 5623 5622 5622 5623 5624 5626 5628 5629 5631 5633 5635 5635 5636 5636 5637 5638 5639 5639 5640 5641 5642 5642 5643 5644 5645 5646 5646 5646 5647 5648 5650 5651 5651 5652 5653 5654 5654 5655 5655 5656 5656 5656 5657 5657 5657 5657 5658 5658 5658 5658 5658 5657 5658 5658 5658 5659 5659 5660 5660 5660 5660 5660 5660 5659 5659 5658 5658 5658 5657 5657 5656 5656 5656 5655 5655 5654 5653 5653 5652
5611 5612 5614 5616 5616 5617 5619 5621 5622 5621 5621 5622 5623 5625 5627 5629 5631 5631 5632 5633 5634 5635 5636 5637 5637 5638 5639 5640 5640 5641 5641 5642 5643 5644 5644 5645 5646 5647 5648 5649 5650 5651 5651 5652 5652 5653 5653 5654 5654 5654 5655 5655 5655 5655 5655 5655 5655 5655 5655 5656 5656 5656 5657 5657 5657 5658 5658 5658 5658 5657 5657 5657 5656 5656 5656 5656 5655 5655 5654 5654 5653 5653 5652 5652 5651 5651
5609 5610 5611 5613 5614 5615 5615 5618 5620 5620 5620 5620 5621 5623 5624 5626 5627 5628 5629 5630 5631 5632 5633 5634 5635 5635 5636 5637 5637 5637 5639 5640 5641 5641 5642 5643 5644 5645 5646 5646 5647 5648 5649 5649 5650 5650 5651 5651 5651 5651 5652 5652 5652 5652 5652 5652 5652 5653 5653 5653 5654 5654 5655 5655 5656 5656 5656 5656 5656 5655 5655 5655 5655 5654 5654 5654 5653 5653 5652 5652 5652 5651 5651 5651 5650 5649
5607 5608 5609 5610 5611 5612 5613 5614 5616 5618 5618 5618 5619 5620 5622 5624 5625 5626 5627 5628 5629 5630 5631 5632 5632 5633 5633 5634 5634 5635 5636 5637 5638 5639 5640 5641 5641 5642 5643 5644 5645 5645 5646 5646 5647 5647 5647 5648 5648 5649 5649 5649 5649 5650 5650 5650 5650 5651 5651 5651 5652 5652 5653 5653 5653 5654 5654 5654 5653 5653 5653 5653 5653 5652 5652 5652 5651 5651 5651 5651 5650 5650 5650 5649 5648 5647
5605 5605 5606 5607 5608 5609 5610 5611 5613 5615 5616 5617 5617 5618 5620 5622 5623 5624 5625 5626 5627 5627 5628 5629 5630 5630 5631 5631 5631 5632 5632 5633 5635 5636 5638 5638 5639 5640 5641 5641 5642 5642 5643 5644 5644 5644 5645 5645 5645 5646 5646 5646 5647 5647 5647 5647 5648 5648 5649 5650 5650 5651 5651 5651 5651 5652 5652 5651 5651 5651 5651 5651 5651 5651 5650 5650 5650 5650 5649 5649 5649 5648 5648 5647 5646 5646
5602 5603 5603 5604 5605 5606 5606 5608 5609 5612 5614 5615 5616 5616 5617 5618 5619 5621 5622 5623 5624 5625 5626 5626 5626 5626 5626 5627 5628 5629 5629 5630 5632 5634 5635 5636 5636 5637 5638 5638 5639 5640 5640 5641 5641 5641 5642 5642 5642 5643 5643 5644 5644 5644 5645 5645 5646 5646 5647 5648 5648 5649 5649 5649 5650 5650 5650 5649 5649 5649 5649 5649 5649 5649 5649 5648 5648 5648 5648 5647 5647 5647 5646 5646 5645 5644
5600 5600 5600 5601 5601 5602 5603 5605 5606 5608 5611 5612 5613 5613 5614 5615 5616 5617 5618 5619 5621 5621 5622 5623 5623 5623 5623 5624 5625 5626 5626 5628 5629 5631 5632 5633 5634 5634 5635 5636 5636 5637 5637 5638 5638 5638 5639 5639 5640 5640 5641 5641 5641 5642 5642 5643 5644 5645 5645 5646 5646 5647 5647 5647 5648 5647 5647 5647 5647 5647 5647 5647 5647 5647 5647 5647 5646 5646 5646 5646 5646 5646 5645 5644 5643 5642
5596 5597 5598 5598 5599 5600 5601 5602 5603 5605 5607 5609 5610 5611 5611 5612 5614 5615 5615 5616 5617 5618 5619 5619 5620 5620 5621 5621 5622 5623 5624 5625 5626 5628 5629 5630 5631 5631 5631 5632 5633 5634 5635 5635 5635 5636 5636 5637 5637 5638 5638 5639 5639 5640 5641 5641 5642 5643 5644 5644 5645 5645 5646 5646 5646 5646 5646 5646 5646 5646 5646 5646 5645 5645 5645 5645 5645 5645 5645 5645 5644 5644 5643 5642 5642 5641
5593 5594 5595 5596 5597 5598 5599 5600 5601 5603 5605 5606 5607 5607 5608 5610 5611 5611 5612 5613 5615 5616 5616 5616 5617 5617 5618 5618 5619 5620 5621 5622 5623 5624 5625 5627 5627 5628 5628 5629 5630 5631 5632 5632 5633 5633 5634 5634 5635 5636 5636 5636 5637 5638 5639 5640 5641 5641 5642 5643 5643 5643 5644 5644 5644 5644 5644 5644 5644 5644 5644 5644 5644 5644 5643 5643 5643 5643 5643 5643 5643 5642 5642 5641 5640 5639
5590 5591 5591 5592 5593 5595 5596 5598 5599 5601 5602 5603 5603 5604 5605 5606 5607 5608 5609 5611 5613 5613 5613 5614 5614 5615 5615 5616 5616 5617 5618 5619 5620 5621 5622 5623 5624 5624 5625 5626 5627 5628 5629 5630 5630 5631 5631 5632 5632 5633 5634 5635 5636 5636 5637 5638 5639 5640 5641 5641 5641 5641 5641 5641 5641 5642 5642 5642 5642 5642 5642 5642 5642 5642 5642 5642 5642 5642 5642 5641 5641 5641 5640 5639 5638 5637
5588 5588 5589 5590 5590 5591 5593 5594 5596 5597 5599 5600 5600 5601 5601 5602 5604 5605 5607 5608 5610 5611 5611 5611 5611 5612 5612 5613 5614 5615 5615 5616 5616 5617 5619 5620 5620 5621 5622 5623 5624 5625 5626 5627 5627 5628 5629 5630 5631 5631 5632 5633 5634 5635 5636 5637 5638 5638 5639 5639 5639 5640 5640 5640 5640 5640 5640 5640 5640 5640 5640 5640 5640 5640 5640 5640 5640 5640 5640 5640 5640 5639 5638 5638 5637 5636
5585 5586 5586 5587 5588 5589 5590 5591 5592 5594 5595 5596 5597 5598 5599 5600 5601 5602 5604 5606 5607 5608 5608 5608 5609 5609 5610 5611 5611 5612 5612 5613 5614 5615 5616 5616 5617 5618 5620 5621 5621 5622 5623 5625 5625 5626 5627 5628 5629 5630 5631 5631 5633 5634 5635 5636 5636 5636 5637 5637 5637 5637 5637 5638 5638 5638 5638 5638 5639 5639 5639 5639 5639 5639 5639 5639 5639 5639 5639 5638 5638 5637 5637 5636 5635 5634
5583 5583 5584 5585 5585 5586 5587 5588 5589 5591 5592 5593 5595 5596 5597 5598 5599 5600 5601 5603 5604 5605 5606 5606 5606 5607 5608 5608 5609 5609 5610 5611 5611 5612 5613 5614 5615 5616 5617 5618 5619 5620 5621 5623 5623 5624 5625 5626 5627 5629 5630 5631 5631 5632 5633 5634 5634 5635 5635 5635 5635 5635 5636 5636 5636 5636 5636 5637 5637 5637 5637 5637 5637 5637 5637 5637 5637 5637 5637 5637 5636 5636 5635 5634 5634 5632
5579 5580 5581 5582 5583 5583 5584 5585 5586 5588 5589 5590 5591 5593 5594 5595 5596 5597 5598 5599 5601 5601 5602 5603 5604 5605 5606 5606 5607 5607 5608 5609 5609 5610 5610 5611 5613 5614 5615 5616 5617 5618 5620 5621 5622 5623 5624 5625 5626 5627 5629 5629 5630 5631 5631 5632 5632 5633 5633 5633 5633 5633 5634 5634 5634 5634 5635 5635 5635 5635 5636 5636 5636 5636 5636 5636 5636 5636 5636 5635 5635 5634 5634 5633 5632 5631
5576 5576 5577 5578 5580 5581 5581 5582 5583 5584 5586 5586 5588 5589 5590 5591 5592 5594 5595 5596 5597 5598 5599 5601 5601 5602 5603 5604 5604 5605 5606 5607 5607 5608 5609 5610 5611 5612 5613 5615 5616 5617 5618 5619 5620 5621 5623 5624 5625 5626 5627 5628 5629 5629 5630 5630 5631 5631 5631 5631 5631 5631 5631 5632 5632 5633 5633 5633 5634 5634 5634 5634 5634 5634 5634 5635 5635 5634 5634 5634 5633 5633 5632 5631 5631 5629
5572 5573 5573 5575 5576 5577 5578 5579 5580 5581 5582 5583 5584 5586 5586 5587 5589 5590 5591 5592 5594 5595 5596 5598 5599 5600 5601 5601 5602 5603 5604 5604 5605 5606 5607 5608 5609 5611 5612 5613 5614 5615 5616 5617 5619 5620 5621 5622 5623 5624 5625 5626 5627 5628 5628 5628 5628 5629 5629 5629 5629 5630 5630 5630 5631 5631 5631 5632 5632 5632 5632 5632 5633 5633 5633 5633 5633 5633 5633 5632 5632 5631 5631 5630 5629 5628
5567 5569 5569 5571 5572 5574 5575 5576 5577 5578 5579 5580 5581 5582 5583 5584 5585 5586 5588 5589 5591 5592 5593 5595 5596 5597 5598 5599 5600 5600 5601 5602 5603 5605 5606 5606 5608 5609 5611 5611 5613 5614 5615 5616 5617 5618 5619 5621 5622 5623 5623 5624 5625 5626 5626 5626 5626 5626 5627 5627 5627 5628 5628 5629 5629 5630 5630 5630 5631 5631 5631 5631 5631 5631 5631 5631 5631 5631 5631 5631 5630 5630 5629 5628 5627 5626
5563 5564 5565 5566 5568 5570 5571 5573 5574 5575 5576 5576 5578 5579 5581 5581 5582 5583 5585 5586 5588 5589 5591 5592 5593 5595 5596 5596 5597 5598 5599 5600 5601 5602 5604 5605 5606 5608 5609 5610 5611 5612 5613 5614 5616 5616 5618 5619 5620 5621 5621 5622 5623 5623 5624 5624 5625 5625 5625 5625 5626 5626 5626 5627 5627 5628 5628 5629 5629 5629 5629 5630 5630 5630 5630 5630 5630 5630 5630 5629 5629 5628 5628 5627 5626 5625
5559 5560 5561 5562 5564 5565 5567 5569 5570 5571 5572 5573 5575 5576 5577 5579 5580 5581 5583 5584 5585 5587 5588 5590 5591 5592 5593 5594 5595 5596 5597 5598 5599 5600 5601 5603 5604 5606 5607 5609 5610 5611 5612 5613 5614 5615 5616 5616 5617 5618 5619 5620 5621 5621 5622 5623 5623 5623 5623 5623 5624 5624 5625 5626 5626 5626 5627 5627 5627 5627 5628 5628 5628 5628 5629 5629 5629 5629 5628 5628 5627 5627 5626 5625 5625 5624
5555 5556 5557 5558 5559 5561 5563 5565 5566 5568 5569 5570 5571 5573 5575 5576 5578 5579 5581 5582 5583 5585 5586 5587 5589 5590 5591 5592 5593 5594 5596 5597 5598 5599 5600 5601 5603 5604 5606 5607 5608 5609 5610 5611 5612 5613 5614 5615 5616 5616 5617 5618 5619 5620 5620 5621 5621 5621 5621 5622 5622 5623 5623 5624 5624 5625 5625 5626 5626 5626 5626 5626 5627 5627 5627 5627 5627 5627 5627 5626 5626 5625 5625 5624 5623 5622
5551 5551 5553 5554 5555 5556 5558 5560 5562 5564 5566 5567 5568 5570 5571 5573 5575 5576 5578 5580 5581 5582 5584 5585 5586 5587 5589 5590 5591 5592 5593 5595 5596 5597 5599 5600 5601 5602 5604 5605 5606 5607 5608 5609 5610 5611 5612 5613 5614 5615 5616 5616 5617 5618 5618 5619 5619 5620 5620 5621 5621 5621 5622 5622 5623 5623 5623 5624 5624 5624 5625 5625 5625 5626 5626 5626 5626 5626 5626 5625 5625 5624 5623 5622 5621 5620
5547 5548 5549 5550 5551 5552 5554 5555 5557 5560 5562 5563 5565 5566 5568 5570 5571 5573 5575 5577 5578 5580 5581 5583 5584 5585 5586 5587 5588 5590 5591 5593 5594 5596 5597 5598 5600 5601 5602 5603 5604 5605 5606 5607 5608 5609 5611 5611 5612 5613 5614 5614 5615 5616 5616 5617 5617 5618 5618 5619 5619 5620 5620 5621 5621 5621 5622 5622 5622 5623 5623 5624 5624 5624 5625 5625 5625 5625 5624 5624 5623 5622 5622 5621 5620 5619
5543 5544 5545 5546 5547 5548 5549 5551 5553 5555 5557 5560 5561 5563 5565 5566 5568 5569 5571 5573 5575 5577 5578 5580 5581 5583 5584 5585 5586 5587 5589 5590 5592 5593 5595 5596 5597 5599 5600 5601 5602 5603 5604 5605 5606 5607 5608 5609 5610 5611 5611 5612 5613 5614 5615 5615 5616 5616 5616 5617 5617 5618 5619 5619 5619 5620 5620 5621 5621 5621 5622 5622 5623 5623 5623 5623 5623 5623 5623 5622 5622 5621 5620 5619 5618 5618
5539 5540 5540 5541 5542 5544 5545 5547 5549 5551 5553 5555 5557 5559 5561 5563 5564 5566 5568 5570 5571 5573 5575 5576 5578 5580 5581 5583 5584 5585 5586 5588 5589 5591 5592 5594 5595 5596 5597 5599 5600 5601 5602 5603 5604 5606 5606 5607 5608 5609 5610 5611 5611 5612 5613 5613 5614 5614 5615 5615 5616 5616 5617 5617 5618 5618 5618 5619 5619 5620 5620 5621 5621 5622 5622 5622 5622 5622 5621 5621 5621 5620 5619 5618 5617 5616
5535 5535 5536 5537 5538 5540 5541 5543 5545 5546 5548 5551 5553 5555 5557 5559 5561 5562 5564 5566 5568 5570 5572 5574 5575 5577 5579 5580 5582 5583 5584 5586 5587 5588 5590 5591 5592 5594 5595 5596 5597 5598 5599 5601 5602 5603 5604 5605 5606 5607 5608 5609 5610 5610 5611 5611 5612 5612 5613 5613 5614 5615 5615 5616 5616 5616 5617 5617 5618 5618 5619 5620 5620 5621 5621 5621 5621 5620 5620 5620 5619 5618 5617 5616 5616 5615
5530 5531 5532 5533 5535 5536 5537 5539 5541 5542 5544 5546 5549 5551 5553 5555 5557 5559 5561 5562 5565 5566 5568 5570 5572 5574 5576 5577 5579 5581 5583 5584 5585 5586 5587 5589 5590 5591 5592 5593 5594 5596 5597 5598 5600 5601 5602 5603 5604 5605 5606 5607 5608 5608 5609 5610 5610 5611 5611 5612 5612 5613 5613 5614 5614 5615 5615 5616 5616 5617 5617 5618 5619 5619 5619 5619 5619 5619 5619 5618 5617 5617 5616 5615 5614 5614
5526 5527 5528 5530 5531 5532 5533 5535 5536 5538 5541 5543 5545 5547 5549 5551 5553 5555 5557 5559 5561 5563 5565 5567 5569 5571 5572 5574 5576 5578 5580 5581 5583 5584 5585 5586 5587 5588 5590 5591 5592 5593 5595 5596 5597 5598 5600 5601 5602 5603 5604 5605 5606 5606 5607 5608 5608 5609 5610 5610 5611 5611 5612 5612 5613 5613 5614 5615 5615 5616 5616 5617 5617 5618 5618 5618 5618 5618 5617 5617 5616 5615 5614 5614 5613 5613
5522 5523 5524 5526 5527 5528 5530 5531 5533 5535 5537 5539 5541 5543 5545 5547 5549 5551 5553 5556 5558 5560 5562 5564 5566 5568 5570 5571 5574 5575 5577 5578 5580 5581 5583 5584 5585 5586 5587 5588 5590 5591 5592 5594 5595 5596 5597 5598 5600 5601 5602 5603 5604 5604 5605 5606 5606 5607 5608 5609 5609 5610 5610 5611 5611 5612 5612 5613 5614 5614 5615 5616 5616 5617 5617 5617 5617 5616 5616 5615 5615 5614 5613 5612 5612 5611
5518 5519 5520 5521 5523 5524 5526 5527 5529 5531 5533 5535 5537 5539 5541 5543 5546 5548 5550 5552 5554 5556 5559 5561 5563 5565 5566 5569 5571 5572 5574 5575 5577 5578 5580 5581 5582 5584 5585 5586 5587 5589 5590 5591 5593 5594 5595 5596 5597 5599 5600 5601 5602 5602 5603 5604 5605 5606 5606 5607 5607 5608 5609 5609 5610 5610 5611 5611 5612 5613 5614 5614 5615 5616 5616 5616 5616 5615 5615 5614 5613 5612 5612 5611 5611 5611
5514 5515 5516 5518 5519 5521 5522 5524 5525 5527 5529 5531 5533 5536 5538 5540 5542 5544 5546 5549 5551 5553 5556 5557 5559 5561 5563 5566 5568 5570 5571 5573 5574 5576 5577 5579 5580 5581 5583 5584 5586 5587 5588 5590 5591 5592 5593 5595 5596 5597 5598 5599 5600 5601 5601 5602 5603 5604 5604 5605 5606 5607 5607 5608 5608 5609 5610 5610 5611 5611 5612 5613 5613 5614 5614 5614 5614 5614 5613 5612 5612 5611 5611 5610 5610 5610
5510 5511 5513 5514 5516 5517 5519 5520 5522 5524 5525 5527 5529 5532 5534 5537 5539 5541 5543 5546 5548 5550 5552 5555 5556 5558 5561 5562 5564 5566 5568 5570 5572 5573 5575 5576 5578 5579 5581 5582 5584 5585 5586 5588 5589 5590 5591 5593 5594 5595 5596 5597 5598 5599 5600 5600 5601 5602 5603 5603 5604 5605 5606 5606 5607 5607 5608 5609 5610 5610 5611 5611 5612 5612 5612 5612 5612 5612 5612 5611 5611 5610 5609 5609 5609 5609
5506 5508 5509 5511 5512 5514 5515 5517 5519 5520 5522 5523 5526 5528 5531 5533 5536 5538 5541 5543 5545 5547 5550 5552 5554 5556 5557 5559 5561 5563 5565 5567 5569 5571 5573 5574 5575 5576 5578 5580 5581 5583 5584 5586 5587 5588 5589 5591 5591 5593 5594 5595 5596 5596 5597 5598 5599 5600 5601 5602 5603 5604 5604 5605 5606 5606 5607 5607 5608 5609 5610 5610 5611 5611 5611 5611 5611 5611 5610 5610 5609 5609 5608 5608 5608 5608